| time (UTC) | temp F | wind direction | speed MPH | gust MPH | rain 1hr in | rain 24hr in | rain mn in | humidity % | barometer mb |
| 20260831033903 | 82 | 220 | 5.0 | 7.0 | 0.00 | 0.00 | 0.00 | 45 | 1027.8 |
| 20260831033404 | 82 | 224 | 5.0 | 7.0 | 0.00 | 0.00 | 0.00 | 41 | 1027.8 |
| 20260831032903 | 82 | 211 | 3.0 | 8.0 | 0.00 | 0.00 | 0.00 | 38 | 1027.7 |
| 20260831032403 | 83 | 193 | 3.0 | 8.0 | 0.00 | 0.00 | 0.00 | 38 | 1027.6 |
| 20260831031903 | 83 | 196 | 4.0 | 6.0 | 0.00 | 0.00 | 0.00 | 37 | 1027.5 |
| 20260831031403 | 83 | 206 | 3.0 | 6.0 | 0.00 | 0.00 | 0.00 | 37 | 1027.5 |
| 20260831030904 | 83 | 207 | 3.0 | 7.0 | 0.00 | 0.00 | 0.00 | 37 | 1027.3 |
| 20260831030403 | 83 | 207 | 3.0 | 6.0 | 0.00 | 0.00 | 0.00 | 37 | 1027.3 |
| 20260831025903 | 84 | 187 | 3.0 | 7.0 | 0.00 | 0.00 | 0.00 | 37 | 1027.3 |
| 20260831025403 | 84 | 184 | 3.0 | 6.0 | 0.00 | 0.00 | 0.00 | 37 | 1027.2 |
| 20260831024403 | 84 | 209 | 3.0 | 6.0 | 0.00 | 0.00 | 0.00 | 36 | 1027.1 |
| 20260831023903 | 84 | 197 | 3.0 | 6.0 | 0.00 | 0.00 | 0.00 | 36 | 1027.0 |
| 20260831023405 | 85 | 191 | 2.0 | 6.0 | 0.00 | 0.00 | 0.00 | 37 | 1027.0 |
| 20260831022903 | 85 | 200 | 3.0 | 7.0 | 0.00 | 0.00 | 0.00 | 39 | 1026.9 |
| 20260831022403 | 85 | 202 | 3.0 | 7.0 | 0.00 | 0.00 | 0.00 | 39 | 1026.9 |
| 20260831021903 | 85 | 213 | 5.0 | 7.0 | 0.00 | 0.00 | 0.00 | 38 | 1026.8 |
| 20260831021403 | 86 | 204 | 5.0 | 9.0 | 0.00 | 0.00 | 0.00 | 37 | 1026.8 |
| 20260831020404 | 86 | 209 | 4.0 | 12.0 | 0.00 | 0.00 | 0.00 | 37 | 1026.5 |
| 20260831015903 | 86 | 227 | 6.0 | 9.0 | 0.00 | 0.00 | 0.00 | 37 | 1026.6 |
| 20260831015403 | 87 | 203 | 6.0 | 10.0 | 0.00 | 0.00 | 0.00 | 36 | 1026.5 |
| 20260831014404 | 87 | 207 | 9.0 | 13.0 | 0.00 | 0.00 | 0.00 | 35 | 1026.4 |
| 20260831013903 | 88 | 219 | 7.0 | 13.0 | 0.00 | 0.00 | 0.00 | 35 | 1026.4 |
| 20260831013404 | 88 | 197 | 6.0 | 14.0 | 0.00 | 0.00 | 0.00 | 35 | 1026.4 |
| 20260831012903 | 88 | 218 | 9.0 | 15.0 | 0.00 | 0.00 | 0.00 | 35 | 1026.4 |
| 20260831012403 | 89 | 208 | 7.0 | 15.0 | 0.00 | 0.00 | 0.00 | 35 | 1026.4 |
| 20260831011904 | 89 | 212 | 7.0 | 15.0 | 0.00 | 0.00 | 0.00 | 35 | 1026.4 |
| 20260831011403 | 89 | 210 | 9.0 | 16.0 | 0.00 | 0.00 | 0.00 | 34 | 1026.4 |
| 20260831010903 | 90 | 210 | 8.0 | 14.0 | 0.00 | 0.00 | 0.00 | 34 | 1026.5 |
| 20260831010403 | 90 | 210 | 9.0 | 15.0 | 0.00 | 0.00 | 0.00 | 33 | 1026.4 |
| 20260831005903 | 90 | 209 | 9.0 | 17.0 | 0.00 | 0.00 | 0.00 | 33 | 1026.4 |
| 20260831005404 | 90 | 213 | 9.0 | 14.0 | 0.00 | 0.00 | 0.00 | 33 | 1026.4 |
| 20260831004904 | 91 | 214 | 11.0 | 16.0 | 0.00 | 0.00 | 0.00 | 32 | 1026.3 |
| 20260831004403 | 91 | 237 | 9.0 | 13.0 | 0.00 | 0.00 | 0.00 | 32 | 1026.4 |
| 20260831003904 | 91 | 239 | 7.0 | 15.0 | 0.00 | 0.00 | 0.00 | 33 | 1026.3 |
| 20260831003403 | 91 | 224 | 10.0 | 17.0 | 0.00 | 0.00 | 0.00 | 32 | 1026.3 |
| 20260831002903 | 91 | 218 | 13.0 | 18.0 | 0.00 | 0.00 | 0.00 | 32 | 1026.3 |
| 20260831002404 | 92 | 220 | 11.0 | 18.0 | 0.00 | 0.00 | 0.00 | 32 | 1026.3 |
| 20260831001903 | 92 | 200 | 9.0 | 16.0 | 0.00 | 0.00 | 0.00 | 32 | 1026.3 |
| 20260831001403 | 92 | 221 | 9.0 | 14.0 | 0.00 | 0.00 | 0.00 | 31 | 1026.3 |
| 20260831000903 | 92 | 208 | 6.0 | 16.0 | 0.00 | 0.00 | 0.00 | 32 | 1026.2 |
| 20260831000403 | 92 | 191 | 9.0 | 16.0 | 0.00 | 0.00 | 0.00 | 31 | 1026.2 |
| 20260830235903 | 93 | 210 | 8.0 | 15.0 | 0.00 | 0.00 | 0.00 | 32 | 1026.2 |
| 20260830235404 | 93 | 195 | 12.0 | 20.0 | 0.00 | 0.00 | 0.00 | 31 | 1026.2 |
| 20260830234904 | 93 | 224 | 8.0 | 17.0 | 0.00 | 0.00 | 0.00 | 31 | 1026.1 |
| 20260830234403 | 93 | 188 | 7.0 | 17.0 | 0.00 | 0.00 | 0.00 | 31 | 1026.1 |
| 20260830233903 | 94 | 216 | 9.0 | 18.0 | 0.00 | 0.00 | 0.00 | 30 | 1026.1 |
| 20260830233403 | 94 | 203 | 9.0 | 17.0 | 0.00 | 0.00 | 0.00 | 31 | 1026.0 |
| 20260830232903 | 94 | 203 | 9.0 | 20.0 | 0.00 | 0.00 | 0.00 | 30 | 1026.0 |
| 20260830232404 | 94 | 204 | 9.0 | 16.0 | 0.00 | 0.00 | 0.00 | 31 | 1025.9 |
| 20260830231904 | 94 | 204 | 9.0 | 16.0 | 0.00 | 0.00 | 0.00 | 31 | 1025.9 |
| 20260830231403 | 94 | 195 | 9.0 | 18.0 | 0.00 | 0.00 | 0.00 | 30 | 1025.9 |
| 20260830230903 | 95 | 211 | 9.0 | 20.0 | 0.00 | 0.00 | 0.00 | 29 | 1025.8 |
| 20260830225903 | 95 | 200 | 7.0 | 20.0 | 0.00 | 0.00 | 0.00 | 30 | 1025.8 |
| 20260830225403 | 96 | 203 | 14.0 | 18.0 | 0.00 | 0.00 | 0.00 | 28 | 1025.8 |
| 20260830224904 | 96 | 214 | 13.0 | 17.0 | 0.00 | 0.00 | 0.00 | 28 | 1025.8 |
| 20260830223904 | 96 | 191 | 9.0 | 17.0 | 0.00 | 0.00 | 0.00 | 29 | 1025.8 |
| 20260830223404 | 96 | 219 | 9.0 | 20.0 | 0.00 | 0.00 | 0.00 | 28 | 1025.9 |
| 20260830222904 | 96 | 210 | 11.0 | 17.0 | 0.00 | 0.00 | 0.00 | 27 | 1026.1 |
| 20260830221903 | 96 | 207 | 12.0 | 17.0 | 0.00 | 0.00 | 0.00 | 27 | 1026.0 |
| 20260830221403 | 96 | 191 | 8.0 | 15.0 | 0.00 | 0.00 | 0.00 | 27 | 1026.2 |
| 20260830220904 | 96 | 209 | 7.0 | 13.0 | 0.00 | 0.00 | 0.00 | 28 | 1026.3 |
| 20260830220404 | 97 | 222 | 10.0 | 17.0 | 0.00 | 0.00 | 0.00 | 27 | 1026.4 |
| 20260830215903 | 97 | 225 | 10.0 | 15.0 | 0.00 | 0.00 | 0.00 | 27 | 1026.5 |
| 20260830215403 | 97 | 219 | 7.0 | 17.0 | 0.00 | 0.00 | 0.00 | 27 | 1026.5 |
| 20260830213903 | 96 | 223 | 9.0 | 14.0 | 0.00 | 0.00 | 0.00 | 27 | 1026.7 |
| 20260830213403 | 96 | 203 | 6.0 | 14.0 | 0.00 | 0.00 | 0.00 | 28 | 1026.9 |
| 20260830212903 | 96 | 198 | 8.0 | 16.0 | 0.00 | 0.00 | 0.00 | 29 | 1026.9 |
| 20260830212404 | 96 | 187 | 5.0 | 15.0 | 0.00 | 0.00 | 0.00 | 28 | 1027.0 |
| 20260830211403 | 96 | 203 | 5.0 | 10.0 | 0.00 | 0.00 | 0.00 | 28 | 1027.1 |
| 20260830210903 | 96 | 244 | 6.0 | 12.0 | 0.00 | 0.00 | 0.00 | 28 | 1027.2 |
| 20260830210403 | 96 | 201 | 8.0 | 13.0 | 0.00 | 0.00 | 0.00 | 30 | 1027.2 |
| 20260830205904 | 96 | 233 | 7.0 | 12.0 | 0.00 | 0.00 | 0.00 | 29 | 1027.3 |
| 20260830205403 | 96 | 212 | 7.0 | 15.0 | 0.00 | 0.00 | 0.00 | 28 | 1027.4 |
| 20260830204904 | 96 | 197 | 10.0 | 16.0 | 0.00 | 0.00 | 0.00 | 28 | 1027.4 |
| 20260830204403 | 95 | 206 | 5.0 | 13.0 | 0.00 | 0.00 | 0.00 | 28 | 1027.5 |
| 20260830203903 | 95 | 223 | 7.0 | 12.0 | 0.00 | 0.00 | 0.00 | 28 | 1027.5 |
| 20260830203404 | 95 | 188 | 5.0 | 10.0 | 0.00 | 0.00 | 0.00 | 30 | 1027.6 |
| 20260830202904 | 95 | 235 | 5.0 | 12.0 | 0.00 | 0.00 | 0.00 | 30 | 1027.7 |
| 20260830201903 | 95 | 203 | 5.0 | 13.0 | 0.00 | 0.00 | 0.00 | 29 | 1027.7 |
| 20260830201404 | 95 | 224 | 7.0 | 13.0 | 0.00 | 0.00 | 0.00 | 29 | 1027.7 |
| 20260830200904 | 95 | 233 | 7.0 | 14.0 | 0.00 | 0.00 | 0.00 | 29 | 1027.7 |
| 20260830200403 | 95 | 229 | 7.0 | 12.0 | 0.00 | 0.00 | 0.00 | 29 | 1027.8 |
| 20260830195903 | 95 | 171 | 5.0 | 10.0 | 0.00 | 0.00 | 0.00 | 30 | 1027.8 |
| 20260830195403 | 95 | 192 | 3.0 | 13.0 | 0.00 | 0.00 | 0.00 | 30 | 1027.7 |
| 20260830194904 | 95 | 210 | 3.0 | 10.0 | 0.00 | 0.00 | 0.00 | 30 | 1027.7 |
| 20260830194403 | 94 | 254 | 5.0 | 12.0 | 0.00 | 0.00 | 0.00 | 29 | 1027.8 |
| 20260830193404 | 94 | 201 | 6.0 | 13.0 | 0.00 | 0.00 | 0.00 | 29 | 1027.8 |
| 20260830192904 | 94 | 200 | 7.0 | 14.0 | 0.00 | 0.00 | 0.00 | 29 | 1027.8 |
| 20260830192403 | 93 | 205 | 2.0 | 13.0 | 0.00 | 0.00 | 0.00 | 30 | 1027.9 |
| 20260830191904 | 93 | 223 | 8.0 | 12.0 | 0.00 | 0.00 | 0.00 | 29 | 1028.0 |
| 20260830191403 | 94 | 224 | 7.0 | 12.0 | 0.00 | 0.00 | 0.00 | 29 | 1027.9 |
| 20260830190903 | 93 | 208 | 6.0 | 12.0 | 0.00 | 0.00 | 0.00 | 30 | 1028.0 |
| 20260830190403 | 93 | 221 | 6.0 | 12.0 | 0.00 | 0.00 | 0.00 | 30 | 1028.0 |
| 20260830184904 | 93 | 212 | 6.0 | 10.0 | 0.00 | 0.00 | 0.00 | 30 | 1028.2 |
| 20260830184404 | 92 | 176 | 1.0 | 7.0 | 0.00 | 0.00 | 0.00 | 31 | 1028.3 |
| 20260830183903 | 92 | 248 | 3.0 | 7.0 | 0.00 | 0.00 | 0.00 | 31 | 1028.3 |
| 20260830183403 | 92 | 165 | 4.0 | 8.0 | 0.00 | 0.00 | 0.00 | 32 | 1028.4 |
| 20260830182903 | 91 | 70 | 2.0 | 6.0 | 0.00 | 0.00 | 0.00 | 32 | 1028.3 |
| 20260830181903 | 90 | 293 | 1.0 | 3.0 | 0.00 | 0.00 | 0.00 | 34 | 1028.5 |
| 20260830180904 | 89 | 265 | 3.0 | 6.0 | 0.00 | 0.00 | 0.00 | 34 | 1028.5 |
| 20260830180404 | 89 | 237 | 2.0 | 3.0 | 0.00 | 0.00 | 0.00 | 35 | 1028.5 |
| 20260830175903 | 89 | 232 | 3.0 | 5.0 | 0.00 | 0.00 | 0.00 | 35 | 1028.5 |
| 20260830175404 | 88 | 211 | 2.0 | 6.0 | 0.00 | 0.00 | 0.00 | 36 | 1028.6 |
| 20260830174404 | 87 | 244 | 4.0 | 8.0 | 0.00 | 0.00 | 0.00 | 37 | 1028.6 |
| 20260830173903 | 87 | 294 | 1.0 | 7.0 | 0.00 | 0.00 | 0.00 | 39 | 1028.5 |
| 20260830173404 | 87 | 29 | 3.0 | 6.0 | 0.00 | 0.00 | 0.00 | 39 | 1028.5 |
| 20260830172904 | 87 | 282 | 2.0 | 6.0 | 0.00 | 0.00 | 0.00 | 39 | 1028.5 |
| 20260830172404 | 87 | 274 | 1.0 | 7.0 | 0.00 | 0.00 | 0.00 | 40 | 1028.5 |
| 20260830171904 | 86 | 312 | 5.0 | 9.0 | 0.00 | 0.00 | 0.00 | 39 | 1028.5 |
| 20260830171403 | 86 | 306 | 1.0 | 3.0 | 0.00 | 0.00 | 0.00 | 39 | 1028.5 |
| 20260830170403 | 85 | 275 | 2.0 | 3.0 | 0.00 | 0.00 | 0.00 | 40 | 1028.6 |
| 20260830165903 | 84 | 205 | 2.0 | 7.0 | 0.00 | 0.00 | 0.00 | 41 | 1028.6 |
| 20260830165404 | 84 | 244 | 2.0 | 5.0 | 0.00 | 0.00 | 0.00 | 40 | 1028.6 |
| 20260830164904 | 83 | 275 | 3.0 | 5.0 | 0.00 | 0.00 | 0.00 | 41 | 1028.7 |
| 20260830163904 | 83 | 281 | 1.0 | 3.0 | 0.00 | 0.00 | 0.00 | 45 | 1028.7 |
| 20260830163404 | 82 | 230 | 3.0 | 6.0 | 0.00 | 0.00 | 0.00 | 46 | 1028.6 |
| 20260830161903 | 81 | 297 | 1.0 | 3.0 | 0.00 | 0.00 | 0.00 | 49 | 1028.6 |
| 20260830161404 | 81 | 305 | 2.0 | 3.0 | 0.00 | 0.00 | 0.00 | 49 | 1028.7 |
| 20260830160404 | 81 | 311 | 2.0 | 3.0 | 0.00 | 0.00 | 0.00 | 49 | 1028.7 |
| 20260830155904 | 81 | 338 | 2.0 | 3.0 | 0.00 | 0.00 | 0.00 | 49 | 1028.7 |
| 20260830155403 | 81 | 327 | 0.0 | 1.0 | 0.00 | 0.00 | 0.00 | 49 | 1028.8 |
| 20260830154904 | 81 | 320 | 0.0 | 0.0 | 0.00 | 0.00 | 0.00 | 49 | 1028.8 |
| 20260830154404 | 81 | 297 | 0.0 | 0.0 | 0.00 | 0.00 | 0.00 | 50 | 1028.8 |
| 20260830153403 | 80 | 355 | 0.0 | 0.0 | 0.00 | 0.00 | 0.00 | 52 | 1028.8 |
| 20260830152903 | 79 | 355 | 0.0 | 0.0 | 0.00 | 0.00 | 0.00 | 52 | 1028.8 |
| 20260830152404 | 79 | 355 | 0.0 | 0.0 | 0.00 | 0.00 | 0.00 | 53 | 1028.9 |
| 20260830151904 | 78 | 355 | 0.0 | 0.0 | 0.00 | 0.00 | 0.00 | 55 | 1028.9 |
| 20260830150903 | 77 | 355 | 0.0 | 0.0 | 0.00 | 0.00 | 0.00 | 54 | 1028.9 |
| 20260830150403 | 77 | 355 | 0.0 | 0.0 | 0.00 | 0.00 | 0.00 | 55 | 1028.9 |
| 20260830145903 | 77 | 355 | 0.0 | 0.0 | 0.00 | 0.00 | 0.00 | 55 | 1028.9 |
| 20260830145403 | 77 | 355 | 0.0 | 0.0 | 0.00 | 0.00 | 0.00 | 55 | 1028.9 |
| 20260830144904 | 76 | 355 | 0.0 | 0.0 | 0.00 | 0.00 | 0.00 | 57 | 1028.9 |
| 20260830144404 | 76 | 355 | 0.0 | 0.0 | 0.00 | 0.00 | 0.00 | 58 | 1028.8 |
| 20260830143903 | 75 | 112 | 0.0 | 0.0 | 0.00 | 0.00 | 0.00 | 59 | 1028.9 |
| 20260830143403 | 75 | 112 | 0.0 | 0.0 | 0.00 | 0.00 | 0.00 | 58 | 1028.9 |
| 20260830142903 | 74 | 112 | 0.0 | 0.0 | 0.00 | 0.00 | 0.00 | 58 | 1028.9 |
| 20260830142403 | 74 | 112 | 0.0 | 0.0 | 0.00 | 0.00 | 0.00 | 60 | 1028.9 |
| 20260830141903 | 73 | 142 | 0.0 | 0.0 | 0.00 | 0.00 | 0.00 | 60 | 1028.9 |
| 20260830141403 | 73 | 142 | 0.0 | 0.0 | 0.00 | 0.00 | 0.00 | 60 | 1028.9 |
| 20260830140903 | 72 | 142 | 0.0 | 3.0 | 0.00 | 0.00 | 0.00 | 60 | 1028.9 |
| 20260830140403 | 72 | 131 | 1.0 | 3.0 | 0.00 | 0.00 | 0.00 | 60 | 1028.9 |
| 20260830135904 | 72 | 130 | 0.0 | 2.0 | 0.00 | 0.00 | 0.00 | 60 | 1028.9 |
| 20260830135403 | 71 | 138 | 2.0 | 3.0 | 0.00 | 0.00 | 0.00 | 60 | 1028.8 |
| 20260830134903 | 71 | 122 | 2.0 | 3.0 | 0.00 | 0.00 | 0.00 | 60 | 1028.8 |
| 20260830134403 | 71 | 135 | 2.0 | 6.0 | 0.00 | 0.00 | 0.00 | 60 | 1028.7 |
| 20260830133903 | 71 | 117 | 3.0 | 6.0 | 0.00 | 0.00 | 0.00 | 60 | 1028.7 |
| 20260830133403 | 71 | 140 | 2.0 | 3.0 | 0.00 | 0.00 | 0.00 | 61 | 1028.6 |
| 20260830131403 | 70 | 60 | 3.0 | 3.0 | 0.00 | 0.00 | 0.00 | 61 | 1028.4 |
| 20260830130903 | 70 | 59 | 3.0 | 3.0 | 0.00 | 0.00 | 0.00 | 61 | 1028.4 |
| 20260830125903 | 71 | 59 | 0.0 | 3.0 | 0.00 | 0.00 | 0.00 | 62 | 1028.3 |
| 20260830125404 | 71 | 59 | 0.0 | 3.0 | 0.00 | 0.00 | 0.00 | 61 | 1028.2 |
| 20260830124904 | 71 | 332 | 0.0 | 0.0 | 0.00 | 0.00 | 0.00 | 61 | 1028.2 |
| 20260830124403 | 71 | 296 | 0.0 | 0.0 | 0.00 | 0.00 | 0.00 | 60 | 1028.2 |
| 20260830123403 | 72 | 296 | 0.0 | 0.0 | 0.00 | 0.00 | 0.00 | 60 | 1028.2 |
| 20260830122904 | 72 | 296 | 0.0 | 0.0 | 0.00 | 0.00 | 0.00 | 60 | 1028.1 |
| 20260830122403 | 72 | 296 | 0.0 | 0.0 | 0.00 | 0.00 | 0.00 | 60 | 1028.0 |
| 20260830121903 | 72 | 296 | 0.0 | 0.0 | 0.00 | 0.00 | 0.00 | 59 | 1027.9 |
| 20260830121404 | 73 | 296 | 0.0 | 0.0 | 0.00 | 0.00 | 0.00 | 59 | 1027.9 |
| 20260830120903 | 73 | 296 | 0.0 | 0.0 | 0.00 | 0.00 | 0.00 | 59 | 1027.8 |
| 20260830120403 | 73 | 296 | 0.0 | 0.0 | 0.00 | 0.00 | 0.00 | 58 | 1027.8 |
| 20260830115903 | 73 | 296 | 0.0 | 0.0 | 0.00 | 0.00 | 0.00 | 57 | 1027.8 |
| 20260830115404 | 73 | 296 | 0.0 | 0.0 | 0.00 | 0.00 | 0.00 | 57 | 1027.7 |
| 20260830114903 | 73 | 296 | 0.0 | 0.0 | 0.00 | 0.00 | 0.00 | 57 | 1027.7 |
| 20260830114403 | 74 | 296 | 0.0 | 0.0 | 0.00 | 0.00 | 0.00 | 56 | 1027.7 |
| 20260830113903 | 74 | 296 | 0.0 | 0.0 | 0.00 | 0.00 | 0.00 | 55 | 1027.7 |
| 20260830113403 | 74 | 296 | 0.0 | 0.0 | 0.00 | 0.00 | 0.00 | 54 | 1027.6 |
| 20260830112903 | 74 | 296 | 0.0 | 0.0 | 0.00 | 0.00 | 0.00 | 55 | 1027.6 |
| 20260830112404 | 74 | 50 | 0.0 | 0.0 | 0.00 | 0.00 | 0.00 | 55 | 1027.6 |
| 20260830111903 | 74 | 50 | 0.0 | 0.0 | 0.00 | 0.00 | 0.00 | 55 | 1027.6 |
| 20260830111403 | 74 | 155 | 0.0 | 0.0 | 0.00 | 0.00 | 0.00 | 54 | 1027.6 |
| 20260830110403 | 75 | 155 | 0.0 | 0.0 | 0.00 | 0.00 | 0.00 | 53 | 1027.6 |
| 20260830105904 | 75 | 155 | 0.0 | 0.0 | 0.00 | 0.00 | 0.00 | 52 | 1027.6 |
| 20260830105403 | 75 | 155 | 0.0 | 0.0 | 0.00 | 0.00 | 0.00 | 52 | 1027.6 |
| 20260830104903 | 75 | 155 | 0.0 | 0.0 | 0.00 | 0.00 | 0.00 | 52 | 1027.6 |
| 20260830104404 | 75 | 155 | 0.0 | 0.0 | 0.00 | 0.00 | 0.00 | 52 | 1027.6 |
| 20260830103404 | 75 | 155 | 0.0 | 0.0 | 0.00 | 0.00 | 0.00 | 51 | 1027.4 |
| 20260830102904 | 76 | 155 | 0.0 | 0.0 | 0.00 | 0.00 | 0.00 | 52 | 1027.4 |
| 20260830102403 | 76 | 155 | 0.0 | 0.0 | 0.00 | 0.00 | 0.00 | 51 | 1027.4 |
| 20260830101903 | 76 | 155 | 0.0 | 0.0 | 0.00 | 0.00 | 0.00 | 51 | 1027.4 |
| 20260830101405 | 76 | 155 | 0.0 | 0.0 | 0.00 | 0.00 | 0.00 | 51 | 1027.4 |
| 20260830100903 | 76 | 155 | 0.0 | 0.0 | 0.00 | 0.00 | 0.00 | 51 | 1027.4 |
| 20260830100404 | 76 | 155 | 0.0 | 0.0 | 0.00 | 0.00 | 0.00 | 51 | 1027.3 |
| 20260830095903 | 76 | 155 | 0.0 | 0.0 | 0.00 | 0.00 | 0.00 | 51 | 1027.3 |
| 20260830095403 | 76 | 158 | 1.0 | 3.0 | 0.00 | 0.00 | 0.00 | 51 | 1027.2 |
| 20260830094903 | 76 | 95 | 0.0 | 0.0 | 0.00 | 0.00 | 0.00 | 51 | 1027.3 |
| 20260830093904 | 77 | 95 | 0.0 | 0.0 | 0.00 | 0.00 | 0.00 | 51 | 1027.4 |
| 20260830092904 | 77 | 95 | 0.0 | 0.0 | 0.00 | 0.00 | 0.00 | 50 | 1027.4 |
| 20260830092403 | 77 | 95 | 0.0 | 0.0 | 0.00 | 0.00 | 0.00 | 50 | 1027.4 |
| 20260830091403 | 77 | 95 | 0.0 | 3.0 | 0.00 | 0.00 | 0.00 | 50 | 1027.5 |
| 20260830090903 | 77 | 167 | 0.0 | 0.0 | 0.00 | 0.00 | 0.00 | 50 | 1027.5 |
| 20260830090403 | 77 | 167 | 0.0 | 0.0 | 0.00 | 0.00 | 0.00 | 51 | 1027.4 |
| 20260830085904 | 77 | 167 | 0.0 | 0.0 | 0.00 | 0.00 | 0.00 | 53 | 1027.5 |
| 20260830085403 | 78 | 167 | 0.0 | 0.0 | 0.00 | 0.00 | 0.00 | 55 | 1027.5 |
| 20260830084903 | 78 | 167 | 0.0 | 1.0 | 0.00 | 0.00 | 0.00 | 55 | 1027.5 |
| 20260830084404 | 78 | 167 | 0.0 | 1.0 | 0.00 | 0.00 | 0.00 | 54 | 1027.5 |
| 20260830083903 | 78 | 167 | 0.0 | 3.0 | 0.00 | 0.00 | 0.00 | 54 | 1027.5 |
| 20260830082904 | 78 | 167 | 0.0 | 3.0 | 0.00 | 0.00 | 0.00 | 53 | 1027.5 |
| 20260830081903 | 79 | 167 | 0.0 | 3.0 | 0.00 | 0.00 | 0.00 | 53 | 1027.6 |
| 20260830081404 | 79 | 184 | 0.0 | 2.0 | 0.00 | 0.00 | 0.00 | 52 | 1027.6 |
| 20260830080904 | 79 | 184 | 2.0 | 3.0 | 0.00 | 0.00 | 0.00 | 52 | 1027.7 |
| 20260830075903 | 79 | 123 | 1.0 | 2.0 | 0.00 | 0.00 | 0.00 | 51 | 1027.7 |
| 20260830075403 | 80 | 123 | 0.0 | 0.0 | 0.00 | 0.00 | 0.00 | 51 | 1027.6 |
| 20260830074903 | 80 | 123 | 0.0 | 2.0 | 0.00 | 0.00 | 0.00 | 51 | 1027.6 |
| 20260830074403 | 80 | 123 | 1.0 | 3.0 | 0.00 | 0.00 | 0.00 | 50 | 1027.6 |
| 20260830073904 | 80 | 148 | 2.0 | 3.0 | 0.00 | 0.00 | 0.00 | 50 | 1027.7 |
| 20260830073404 | 80 | 125 | 0.0 | 2.0 | 0.00 | 0.00 | 0.00 | 50 | 1027.7 |
| 20260830072904 | 80 | 125 | 0.0 | 0.0 | 0.00 | 0.00 | 0.00 | 50 | 1027.7 |
| 20260830072404 | 80 | 125 | 0.0 | 0.0 | 0.00 | 0.00 | 0.00 | 49 | 1027.7 |
| 20260830071903 | 80 | 125 | 0.0 | 1.0 | 0.00 | 0.00 | 0.00 | 49 | 1027.8 |
| 20260830071403 | 80 | 125 | 0.0 | 2.0 | 0.00 | 0.00 | 0.00 | 49 | 1027.8 |
| 20260830070904 | 81 | 125 | 1.0 | 3.0 | 0.00 | 0.00 | 0.00 | 49 | 1027.8 |
| 20260830065903 | 81 | 125 | 2.0 | 3.0 | 0.00 | 0.00 | 0.00 | 49 | 1027.8 |
| 20260830065403 | 81 | 125 | 2.0 | 3.0 | 0.00 | 0.00 | 0.00 | 49 | 1027.8 |
| 20260830064903 | 81 | 296 | 1.0 | 2.0 | 0.00 | 0.00 | 0.00 | 49 | 1027.7 |
| 20260830064404 | 81 | 296 | 0.0 | 0.0 | 0.00 | 0.00 | 0.00 | 48 | 1027.7 |
| 20260830063904 | 81 | 296 | 0.0 | 0.0 | 0.00 | 0.00 | 0.00 | 48 | 1027.6 |
| 20260830062904 | 81 | 296 | 0.0 | 0.0 | 0.00 | 0.00 | 0.00 | 49 | 1027.5 |
| 20260830061904 | 81 | 295 | 1.0 | 2.0 | 0.00 | 0.00 | 0.00 | 48 | 1027.5 |
| 20260830061403 | 81 | 295 | 0.0 | 0.0 | 0.00 | 0.00 | 0.00 | 48 | 1027.5 |
| 20260830060903 | 82 | 268 | 0.0 | 0.0 | 0.00 | 0.00 | 0.00 | 48 | 1027.5 |
| 20260830060404 | 82 | 268 | 0.0 | 0.0 | 0.00 | 0.00 | 0.00 | 48 | 1027.5 |
| 20260830055904 | 82 | 268 | 0.0 | 0.0 | 0.00 | 0.00 | 0.00 | 47 | 1027.5 |
| 20260830055404 | 82 | 233 | 0.0 | 2.0 | 0.00 | 0.00 | 0.00 | 48 | 1027.6 |
| 20260830054903 | 82 | 259 | 0.0 | 2.0 | 0.00 | 0.00 | 0.00 | 48 | 1027.6 |
| 20260830054404 | 82 | 265 | 0.0 | 0.0 | 0.00 | 0.00 | 0.00 | 47 | 1027.7 |
| 20260830053904 | 82 | 268 | 0.0 | 0.0 | 0.00 | 0.00 | 0.00 | 47 | 1027.6 |
| 20260830053404 | 83 | 267 | 0.0 | 0.0 | 0.00 | 0.00 | 0.00 | 46 | 1027.6 |
| 20260830052404 | 83 | 257 | 0.0 | 0.0 | 0.00 | 0.00 | 0.00 | 45 | 1027.5 |
| 20260830051904 | 83 | 253 | 0.0 | 0.0 | 0.00 | 0.00 | 0.00 | 45 | 1027.5 |
| 20260830051404 | 83 | 233 | 0.0 | 0.0 | 0.00 | 0.00 | 0.00 | 45 | 1027.5 |
| 20260830050903 | 83 | 220 | 1.0 | 2.0 | 0.00 | 0.00 | 0.00 | 44 | 1027.5 |
| 20260830045903 | 84 | 184 | 2.0 | 5.0 | 0.00 | 0.00 | 0.00 | 44 | 1027.4 |
| 20260830045404 | 84 | 204 | 3.0 | 6.0 | 0.00 | 0.00 | 0.00 | 44 | 1027.4 |
| 20260830044903 | 84 | 222 | 3.0 | 5.0 | 0.00 | 0.00 | 0.00 | 44 | 1027.3 |
| 20260830043403 | 85 | 220 | 3.0 | 6.0 | 0.00 | 0.00 | 0.00 | 44 | 1027.3 |
| 20260830042904 | 85 | 195 | 3.0 | 6.0 | 0.00 | 0.00 | 0.00 | 44 | 1027.3 |
| 20260830042404 | 85 | 220 | 5.0 | 6.0 | 0.00 | 0.00 | 0.00 | 42 | 1027.2 |
| 20260830041904 | 85 | 210 | 3.0 | 6.0 | 0.00 | 0.00 | 0.00 | 39 | 1027.2 |
| 20260830041403 | 85 | 207 | 3.0 | 5.0 | 0.00 | 0.00 | 0.00 | 39 | 1027.2 |
| 20260830035904 | 86 | 169 | 0.0 | 0.0 | 0.00 | 0.00 | 0.00 | 40 | 1027.0 |
| 20260830035404 | 86 | 169 | 0.0 | 0.0 | 0.00 | 0.00 | 0.00 | 40 | 1027.0 |
| 20260830034904 | 86 | 169 | 0.0 | 0.0 | 0.00 | 0.00 | 0.00 | 41 | 1026.9 |
| 20260830034404 | 86 | 169 | 0.0 | 2.0 | 0.00 | 0.00 | 0.00 | 41 | 1026.8 |